This demonstration page uses our WeatherBlox Daily Observations layout. Learn more.

Left ArrowRight Arrow

39.51506, -84.39828

Hourly Observations for June 14, 2015

Temp ( °F °C ) Dew Point ( °F °C ) Humidity (%) Winds ( mph kmh ) Pressure ( in mb ) Visibility ( mi km ) Precip ( " mm )
12:15 am 00:15 Clear 80 26.5 69 20.5 70 70 SW 8 13 30.03 1017 10 16 N/A
12:35 am 00:35 Clear 80 26.5 70 21 72 72 WSW 7 11 30.03 1017 10 16 N/A
12:55 am 00:55 undefined N/A N/A N/A undefined N/A N/A N/A N/A
1:15 am 01:15 undefined 80 26.5 69 20.4 69 69 WSW 7 11 30.03 1017 N/A N/A
1:35 am 01:35 Mostly Cloudy 80 26.5 69 20.5 70 70 WSW 7 11 30.03 1017 10 16 N/A
1:55 am 01:55 Mostly Cloudy with Light Rain 77 25.1 68 20.2 74 74 WSW 6 9 30.03 1017 10 16 N/A
2:15 am 02:15 Mostly Cloudy with Drizzle 77 25.1 70 21.1 79 79 WSW 3 6 30.03 1017 10 16 N/A
2:35 am 02:35 Partly Cloudy 77 25.1 71 21.5 81 81 SW 3 6 30.03 1017 10 16 N/A
2:55 am 02:55 Mostly Cloudy 74 23.6 69 20.6 83 83 N N/A 30.03 1017 10 16 N/A
3:15 am 03:15 Partly Cloudy 74 23.6 69 20.8 84 84 SSW 5 7 30.00 1016 10 16 N/A
3:35 am 03:35 Clear 77 25.1 71 21.8 82 82 SW 3 6 30.00 1016 10 16 N/A
3:55 am 03:55 Clear 74 23.6 69 20.8 84 84 N N/A 30.00 1016 10 16 N/A
4:15 am 04:15 Partly Cloudy 74 23.6 69 20.8 84 84 N N/A 30.00 1016 10 16 N/A
4:35 am 04:35 Mostly Cloudy 74 23.6 70 21.2 86 86 N N/A 30.00 1016 10 16 N/A
4:55 am 04:55 Mostly Cloudy 74 23.6 70 21.3 87 87 N N/A 30.00 1016 10 16 N/A
5:15 am 05:15 Cloudy 74 23.6 71 21.5 88 88 N N/A 30.00 1016 10 16 N/A
5:35 am 05:35 Mostly Cloudy 74 23.6 71 21.5 88 88 SW 5 7 30.00 1016 10 16 N/A
5:55 am 05:55 Partly Cloudy 75 23.8 69 20.7 83 83 SW 5 7 30.03 1017 10 16 N/A
6:15 am 06:15 Partly Cloudy 75 23.7 69 20.6 83 83 SW 3 6 30.03 1017 10 16 N/A
6:35 am 06:35 Partly Cloudy 74 23.6 70 21 85 85 SW 5 7 30.03 1017 10 16 N/A
6:55 am 06:55 Partly Cloudy 76 24.3 69 20.7 80 80 SW 6 9 30.03 1017 10 16 N/A
7:15 am 07:15 Sunny 77 25 70 21.3 80 80 SW 5 7 30.03 1017 10 16 N/A
7:35 am 07:35 Sunny 77 25.1 69 20.7 77 77 SW 7 11 30.03 1017 10 16 N/A
7:55 am 07:55 Sunny 80 26.5 71 21.5 74 74 SW 9 15 30.03 1017 10 16 N/A
8:15 am 08:15 Mostly Cloudy 80 26.5 70 21.3 73 73 SW 9 15 30.03 1017 10 16 N/A
8:35 am 08:35 Partly Cloudy 80 26.5 71 21.5 74 74 WSW 7 11 30.06 1018 10 16 N/A
8:55 am 08:55 Sunny 80 26.5 71 21.4 74 74 SW 6 9 30.06 1018 10 16 N/A
9:15 am 09:15 Sunny 80 26.5 71 21.5 74 74 SSW 9 15 30.06 1018 10 16 N/A
9:35 am 09:35 Sunny 80 26.5 71 21.4 74 74 SW 8 13 30.06 1018 10 16 N/A
9:55 am 09:55 Sunny 80 26.5 71 21.4 74 74 WNW 9 15 30.06 1018 10 16 N/A
10:15 am 10:15 Sunny 80 26.5 70 21.3 73 73 SW 10 17 30.06 1018 10 16 N/A
10:35 am 10:35 Sunny 80 26.7 71 21.5 73 73 SW 9 15 30.06 1018 10 16 N/A
10:55 am 10:55 Sunny 82 28 71 21.4 67 67 WSW 8 13 30.06 1018 10 16 N/A
11:15 am 11:15 Sunny 83 28.6 70 21.1 64 64 WSW 12 19 30.00 1016 10 16 N/A
11:35 am 11:35 Sunny 85 29.3 71 21.6 63 63 WSW 10 17 30.00 1016 10 16 N/A
11:55 am 11:55 Partly Cloudy 86 30.2 72 22.1 62 62 SW 13 20 30.00 1016 10 16 N/A
12:15 pm 12:15 Partly Cloudy 87 30.6 72 22.4 62 62 SSW 10 17 30.00 1016 10 16 N/A
12:35 pm 12:35 Mostly Cloudy 89 31.7 72 22 56 56 SW 13 20 30.00 1016 10 16 N/A
12:55 pm 12:55 Mostly Cloudy 89 31.6 73 22.6 59 59 SW 10 17 30.00 1016 10 16 N/A
1:15 pm 13:15 Mostly Cloudy 88 31.1 71 21.4 56 56 SW 16 26 30.00 1016 10 16 N/A
1:35 pm 13:35 Partly Cloudy 90 32.1 71 21.4 53 53 WSW 13 20 30.00 1016 10 16 N/A
1:55 pm 13:55 Partly Cloudy 90 32.1 71 21.5 53 53 SW 14 22 30.00 1016 10 16 N/A
2:15 pm 14:15 Partly Cloudy 90 32.1 71 21.4 53 53 SW 12 19 29.97 1015 10 16 N/A
2:35 pm 14:35 Mostly Cloudy 90 32.1 72 22 55 55 SW 16 26 29.97 1015 N/A N/A
2:55 pm 14:55 Mostly Cloudy 90 32.1 71 21.5 53 53 WSW 9 15 29.97 1015 N/A N/A
3:15 pm 15:15 Partly Cloudy 90 32.1 70 21 52 52 SW 16 26 29.97 1015 N/A N/A
3:35 pm 15:35 Partly Cloudy 90 32.1 71 21.4 53 53 WSW 9 15 29.94 1014 10 16 N/A
3:55 pm 15:55 Partly Cloudy N/A N/A N/A SW 10 17 N/A N/A N/A
4:15 pm 16:15 Partly Cloudy 90 32.1 71 21.4 53 53 SSW 16 26 29.94 1014 10 16 N/A
4:35 pm 16:35 Partly Cloudy 90 32.1 71 21.4 53 53 SW 16 26 29.94 1014 10 16 N/A
4:55 pm 16:55 Partly Cloudy 90 32.1 69 20.7 51 51 SW 16 26 29.94 1014 10 16 N/A
5:15 pm 17:15 Partly Cloudy 90 32.1 71 21.6 54 54 SW 12 19 29.94 1014 10 16 N/A
5:35 pm 17:35 Partly Cloudy 90 32.1 69 20.4 50 50 WSW 12 19 29.94 1014 10 16 N/A
5:55 pm 17:55 Partly Cloudy 90 32.1 69 20.5 50 50 WSW 13 20 29.94 1014 N/A N/A
6:15 pm 18:15 Partly Cloudy 90 32.1 68 20 49 49 SW 16 26 29.94 1014 N/A N/A
6:35 pm 18:35 Partly Cloudy 90 32.1 69 20.4 50 50 SW 16 26 29.94 1014 N/A N/A
6:55 pm 18:55 Sunny 90 32.1 69 20.8 51 51 SW 16 26 29.91 1013 N/A N/A
7:15 pm 19:15 Sunny 87 30.7 68 20 53 53 WSW 15 24 29.91 1013 N/A N/A
7:35 pm 19:35 Sunny 85 29.3 67 19.3 55 55 WSW 9 15 29.94 1014 N/A N/A
7:55 pm 19:55 Sunny 85 29.3 68 20.1 58 58 SW 8 13 29.94 1014 10 16 N/A
8:15 pm 20:15 Sunny 83 28.6 68 19.8 59 59 WSW 8 13 29.94 1014 10 16 N/A
8:35 pm 20:35 Sunny 83 28.1 68 20 61 61 SW 8 13 29.94 1014 N/A N/A
8:55 pm 20:55 Sunny 82 28 69 20.5 64 64 WSW 7 11 29.94 1014 10 16 N/A
9:15 pm 21:15 Clear 81 27.2 69 20.5 67 67 WSW 5 7 29.97 1015 10 16 N/A
9:35 pm 21:35 Clear 80 26.5 70 21 72 72 WSW 3 6 29.97 1015 10 16 N/A
9:55 pm 21:55 Clear 80 26.5 71 21.5 74 74 SW 5 7 29.97 1015 10 16 N/A
10:15 pm 22:15 Partly Cloudy 80 26.4 72 22 77 77 SW 7 11 29.97 1015 10 16 N/A
10:35 pm 22:35 Partly Cloudy 80 26.5 71 21.6 75 75 SW 5 7 30.00 1016 10 16 N/A
10:55 pm 22:55 Clear 80 26.5 71 21.5 74 74 WSW 3 6 30.00 1016 10 16 N/A
11:15 pm 23:15 Partly Cloudy 78 25.7 70 20.9 75 75 SW 3 6 30.00 1016 10 16 N/A
11:35 pm 23:35 Clear 77 25.1 69 20.8 77 77 SW 6 9 30.00 1016 10 16 N/A
11:55 pm 23:55 Clear 77 25.1 69 20.8 77 77 SW 7 11 30.03 1017 10 16 N/A

Powered by AerisWeather